Year,Month,Day,Hour,Minute,Value (Times are PST for windgust in km/hr)
2009,03,20,14,54,29.00
2009,03,20,14,55,17.70
2009,03,20,14,56,20.90
2009,03,20,14,57,19.30
2009,03,20,14,58,22.50
2009,03,20,14,59,25.70
2009,03,20,15,00,22.50
2009,03,20,15,01,22.50
2009,03,20,15,02,30.60
2009,03,20,15,03,32.20
2009,03,20,15,04,17.70
2009,03,20,15,05,25.70
2009,03,20,15,06,32.20
2009,03,20,15,07,29.00
2009,03,20,15,08,24.20
2009,03,20,15,09,32.20
2009,03,20,15,10,25.70
2009,03,20,15,11,25.70
2009,03,20,15,12,33.80
2009,03,20,15,13,32.20
2009,03,20,15,14,35.40
2009,03,20,15,15,32.20
2009,03,20,15,16,45.10
2009,03,20,15,17,49.90
2009,03,20,15,18,38.60
2009,03,20,15,19,40.20
2009,03,20,15,20,53.10
2009,03,20,15,21,43.50
2009,03,20,15,22,59.50
2009,03,20,15,23,54.70
2009,03,20,15,24,64.40
2009,03,20,15,25,75.60
2009,03,20,15,26,56.30
2009,03,20,15,27,53.10
2009,03,20,15,28,37.00
2009,03,20,15,29,53.10
2009,03,20,15,30,49.90
2009,03,20,15,31,54.70
2009,03,20,15,32,53.10
2009,03,20,15,33,70.80
2009,03,20,15,34,61.20
2009,03,20,15,35,38.60
2009,03,20,15,36,54.70
2009,03,20,15,37,51.50
2009,03,20,15,38,48.30
2009,03,20,15,39,51.50
2009,03,20,15,40,49.90
2009,03,20,15,41,43.50
2009,03,20,15,42,46.70
2009,03,20,15,43,38.60
2009,03,20,15,44,49.90
2009,03,20,15,45,54.70
2009,03,20,15,46,43.50
2009,03,20,15,47,32.20
2009,03,20,15,48,49.90
2009,03,20,15,49,49.90
2009,03,20,15,50,41.80
2009,03,20,15,51,53.10
2009,03,20,15,52,51.50
2009,03,20,15,53,45.10
2009,03,20,15,54,49.90
2009,03,20,15,55,30.60
2009,03,20,15,56,27.40
2009,03,20,15,57,33.80
2009,03,20,15,58,29.00
2009,03,20,15,59,24.20
2009,03,20,16,00,32.20
2009,03,20,16,01,38.60
2009,03,20,16,02,46.70
2009,03,20,16,03,49.90
2009,03,20,16,04,37.00
2009,03,20,16,05,43.50
2009,03,20,16,06,61.20
2009,03,20,16,07,37.00
2009,03,20,16,08,35.40
2009,03,20,16,09,27.40
2009,03,20,16,10,27.40
2009,03,20,16,11,29.00
2009,03,20,16,12,45.10
2009,03,20,16,13,32.20
2009,03,20,16,14,30.60
2009,03,20,16,15,40.20
2009,03,20,16,16,46.70
2009,03,20,16,17,37.00
2009,03,20,16,18,27.40
2009,03,20,16,19,35.40
2009,03,20,16,20,29.00
2009,03,20,16,21,29.00
2009,03,20,16,22,29.00
2009,03,20,16,23,40.20
2009,03,20,16,24,43.50
2009,03,20,16,25,41.80
2009,03,20,16,26,49.90
2009,03,20,16,27,32.20
2009,03,20,16,28,33.80
2009,03,20,16,29,41.80
2009,03,20,16,30,43.50
2009,03,20,16,31,29.00
2009,03,20,16,32,30.60
2009,03,20,16,33,27.40
2009,03,20,16,34,25.70
2009,03,20,16,35,22.50
2009,03,20,16,36,35.40
2009,03,20,16,37,29.00
2009,03,20,16,38,29.00
2009,03,20,16,39,41.80
2009,03,20,16,40,24.20
2009,03,20,16,41,37.00
2009,03,20,16,42,38.60
2009,03,20,16,43,38.60
2009,03,20,16,44,43.50
2009,03,20,16,45,43.50
2009,03,20,16,46,54.70
2009,03,20,16,47,45.10
2009,03,20,16,48,43.50
2009,03,20,16,49,38.60
2009,03,20,16,50,49.90
2009,03,20,16,51,38.60
2009,03,20,16,52,38.60
2009,03,20,16,53,33.80
2009,03,20,16,54,46.70
2009,03,20,16,55,45.10
2009,03,20,16,56,29.00
2009,03,20,16,57,45.10
2009,03,20,16,58,41.80
2009,03,20,16,59,56.30
2009,03,20,17,00,53.10
2009,03,20,17,01,40.20
2009,03,20,17,02,53.10
2009,03,20,17,03,38.60
2009,03,20,17,04,41.80
2009,03,20,17,05,43.50
2009,03,20,17,06,40.20
2009,03,20,17,07,49.90
2009,03,20,17,08,45.10
2009,03,20,17,09,46.70
2009,03,20,17,10,37.00
2009,03,20,17,11,38.60
2009,03,20,17,12,43.50
2009,03,20,17,13,41.80
2009,03,20,17,14,43.50
2009,03,20,17,15,45.10
2009,03,20,17,16,35.40
2009,03,20,17,17,35.40
2009,03,20,17,18,33.80
2009,03,20,17,19,49.90
2009,03,20,17,20,43.50
2009,03,20,17,21,40.20
2009,03,20,17,22,53.10
2009,03,20,17,23,41.80
2009,03,20,17,24,40.20
2009,03,20,17,25,33.80
2009,03,20,17,26,24.20
2009,03,20,17,27,30.60
2009,03,20,17,28,32.20
2009,03,20,17,29,35.40
2009,03,20,17,30,37.00
2009,03,20,17,31,37.00
2009,03,20,17,32,32.20
2009,03,20,17,33,32.20
2009,03,20,17,34,29.00
2009,03,20,17,35,17.70
2009,03,20,17,36,19.30
2009,03,20,17,37,22.50
2009,03,20,17,38,17.70
2009,03,20,17,39,19.30
2009,03,20,17,40,29.00
2009,03,20,17,41,17.70
2009,03,20,17,42,27.40
2009,03,20,17,43,27.40
2009,03,20,17,44,33.80
2009,03,20,17,45,30.60
2009,03,20,17,46,35.40
2009,03,20,17,47,32.20
2009,03,20,17,48,43.50
2009,03,20,17,49,35.40
2009,03,20,17,50,33.80
2009,03,20,17,51,49.90
2009,03,20,17,52,53.10
2009,03,20,17,53,41.80
2009,03,20,17,54,27.40
2009,03,20,17,55,20.90
2009,03,20,17,56,20.90
2009,03,20,17,57,29.00
2009,03,20,17,58,33.80
2009,03,20,17,59,40.20
2009,03,20,18,00,35.40
2009,03,20,18,01,29.00
2009,03,20,18,02,35.40
2009,03,20,18,03,33.80
2009,03,20,18,04,32.20
2009,03,20,18,05,30.60
2009,03,20,18,06,20.90
2009,03,20,18,07,20.90
2009,03,20,18,08,24.20
2009,03,20,18,09,29.00
2009,03,20,18,10,40.20
2009,03,20,18,11,43.50
2009,03,20,18,12,30.60
2009,03,20,18,13,19.30
2009,03,20,18,14,20.90
2009,03,20,18,15,32.20
2009,03,20,18,16,27.40
2009,03,20,18,17,17.70
2009,03,20,18,18,27.40
2009,03,20,18,19,17.70
2009,03,20,18,20,27.40
2009,03,20,18,21,19.30
2009,03,20,18,22,24.20
2009,03,20,18,23,33.80
2009,03,20,18,24,29.00
2009,03,20,18,25,30.60
2009,03,20,18,26,29.00
2009,03,20,18,27,35.40
2009,03,20,18,28,22.50
2009,03,20,18,29,19.30
2009,03,20,18,30,17.70
2009,03,20,18,31,20.90
2009,03,20,18,32,17.70
2009,03,20,18,33,16.10
2009,03,20,18,34,17.70
2009,03,20,18,35,29.00
2009,03,20,18,36,32.20
2009,03,20,18,37,22.50
2009,03,20,18,38,17.70
2009,03,20,18,39,24.20
2009,03,20,18,40,17.70
2009,03,20,18,41,24.20
2009,03,20,18,42,24.20
2009,03,20,18,43,20.90
2009,03,20,18,44,24.20
2009,03,20,18,45,16.10
2009,03,20,18,46,16.10
2009,03,20,18,47,16.10
2009,03,20,18,48,24.20
2009,03,20,18,49,20.90
2009,03,20,18,50,16.10
2009,03,20,18,51,8.10
2009,03,20,18,52,9.60
2009,03,20,18,53,14.50
2009,03,20,18,54,14.50
2009,03,20,18,55,14.50
2009,03,20,18,56,12.90
2009,03,20,18,57,17.70
2009,03,20,18,58,20.90
2009,03,20,18,59,12.90
2009,03,20,19,00,9.60
2009,03,20,19,01,16.10
2009,03,20,19,02,14.50
2009,03,20,19,03,11.30
2009,03,20,19,04,8.10
2009,03,20,19,05,12.90
2009,03,20,19,06,9.60
2009,03,20,19,07,9.60
2009,03,20,19,08,6.40
2009,03,20,19,09,6.40
2009,03,20,19,10,9.60
2009,03,20,19,11,6.40
2009,03,20,19,12,9.60
2009,03,20,19,13,3.20
2009,03,20,19,14,4.80
2009,03,20,19,15,6.40
2009,03,20,19,16,6.40
2009,03,20,19,17,3.20
2009,03,20,19,18,6.40
2009,03,20,19,19,3.20
2009,03,20,19,20,3.20
2009,03,20,19,21,6.40
2009,03,20,19,22,1.60
2009,03,20,19,23,0.00
2009,03,20,19,24,1.60
2009,03,20,19,25,0.00
2009,03,20,19,26,0.00
2009,03,20,19,27,1.60
2009,03,20,19,28,1.60
2009,03,20,19,29,0.00
2009,03,20,19,30,0.00
2009,03,20,19,31,0.00
2009,03,20,19,32,0.00
2009,03,20,19,33,0.00
2009,03,20,19,34,0.00
2009,03,20,19,35,0.00
2009,03,20,19,36,0.00
2009,03,20,19,37,0.00
2009,03,20,19,38,0.00
2009,03,20,19,39,0.00
2009,03,20,19,40,0.00
2009,03,20,19,41,1.60
2009,03,20,19,42,0.00
2009,03,20,19,43,1.60
2009,03,20,19,44,1.60
2009,03,20,19,45,3.20
2009,03,20,19,46,8.10
2009,03,20,19,47,8.10
2009,03,20,19,48,3.20
2009,03,20,19,49,3.20
2009,03,20,19,50,1.60
2009,03,20,19,51,3.20
2009,03,20,19,52,1.60
2009,03,20,19,53,3.20
2009,03,20,19,54,3.20
2009,03,20,19,55,3.20
2009,03,20,19,56,3.20
2009,03,20,19,57,1.60
2009,03,20,19,58,6.40
2009,03,20,19,59,1.60
2009,03,20,20,00,0.00
2009,03,20,20,01,1.60
2009,03,20,20,02,1.60
2009,03,20,20,03,1.60
2009,03,20,20,04,0.00
2009,03,20,20,05,0.00
2009,03,20,20,06,0.00
2009,03,20,20,07,0.00
2009,03,20,20,08,0.00
2009,03,20,20,09,0.00
2009,03,20,20,10,1.60
2009,03,20,20,11,1.60
2009,03,20,20,12,0.00
2009,03,20,20,13,0.00
2009,03,20,20,14,0.00
2009,03,20,20,15,1.60
2009,03,20,20,16,1.60
2009,03,20,20,17,1.60
2009,03,20,20,18,0.00
2009,03,20,20,19,0.00
2009,03,20,20,20,0.00
2009,03,20,20,21,0.00
2009,03,20,20,22,0.00
2009,03,20,20,23,0.00
2009,03,20,20,24,0.00
2009,03,20,20,25,0.00
2009,03,20,20,26,0.00
2009,03,20,20,27,0.00
2009,03,20,20,28,1.60
2009,03,20,20,29,1.60
2009,03,20,20,30,1.60
2009,03,20,20,31,1.60
2009,03,20,20,32,1.60
2009,03,20,20,33,1.60
2009,03,20,20,34,1.60
2009,03,20,20,35,1.60
2009,03,20,20,36,1.60
2009,03,20,20,37,1.60
2009,03,20,20,38,1.60
2009,03,20,20,39,1.60
2009,03,20,20,40,1.60
2009,03,20,20,41,1.60
2009,03,20,20,42,3.20
2009,03,20,20,43,4.80
2009,03,20,20,44,4.80
2009,03,20,20,45,3.20
2009,03,20,20,46,4.80
2009,03,20,20,47,3.20
2009,03,20,20,48,1.60
2009,03,20,20,49,3.20
2009,03,20,20,50,0.00
2009,03,20,20,51,3.20
2009,03,20,20,52,4.80
2009,03,20,20,53,3.20
2009,03,20,20,54,3.20
2009,03,20,20,55,3.20
2009,03,20,20,56,4.80
2009,03,20,20,57,6.40
2009,03,20,20,58,9.60
2009,03,20,20,59,4.80
2009,03,20,21,00,4.80
2009,03,20,21,01,8.10
2009,03,20,21,02,14.50
2009,03,20,21,03,12.90
2009,03,20,21,04,14.50
2009,03,20,21,05,11.30
2009,03,20,21,06,16.10
2009,03,20,21,07,14.50
2009,03,20,21,08,19.30
2009,03,20,21,09,20.90
2009,03,20,21,10,16.10
2009,03,20,21,11,9.60
2009,03,20,21,12,19.30
2009,03,20,21,13,16.10
2009,03,20,21,14,17.70
2009,03,20,21,15,16.10
2009,03,20,21,16,9.60
2009,03,20,21,17,11.30
2009,03,20,21,18,8.10
2009,03,20,21,19,11.30
2009,03,20,21,20,11.30
2009,03,20,21,21,9.60
2009,03,20,21,22,8.10
2009,03,20,21,23,6.40
2009,03,20,21,24,9.60
2009,03,20,21,25,9.60
2009,03,20,21,26,16.10
2009,03,20,21,27,14.50
2009,03,20,21,28,6.40
2009,03,20,21,29,6.40
2009,03,20,21,30,11.30
2009,03,20,21,31,14.50
2009,03,20,21,32,14.50
2009,03,20,21,33,12.90
2009,03,20,21,34,8.10
2009,03,20,21,35,14.50
2009,03,20,21,36,16.10
2009,03,20,21,37,4.80
2009,03,20,21,38,3.20
2009,03,20,21,39,8.10
2009,03,20,21,40,16.10
2009,03,20,21,41,8.10
2009,03,20,21,42,12.90
2009,03,20,21,43,8.10
2009,03,20,21,44,8.10
2009,03,20,21,45,9.60
2009,03,20,21,46,4.80
2009,03,20,21,47,9.60
2009,03,20,21,48,9.60
2009,03,20,21,49,8.10
2009,03,20,21,50,4.80
2009,03,20,21,51,4.80
2009,03,20,21,52,8.10
2009,03,20,21,53,6.40
2009,03,20,21,54,4.80
2009,03,20,21,55,3.20
2009,03,20,21,56,0.00
2009,03,20,21,57,0.00
2009,03,20,21,58,0.00
2009,03,20,21,59,0.00
2009,03,20,22,00,1.60
2009,03,20,22,01,1.60
2009,03,20,22,02,3.20
2009,03,20,22,03,1.60
2009,03,20,22,04,1.60
2009,03,20,22,05,1.60
2009,03,20,22,06,1.60
2009,03,20,22,07,1.60
2009,03,20,22,08,3.20
2009,03,20,22,09,1.60
2009,03,20,22,10,0.00
2009,03,20,22,11,1.60
2009,03,20,22,12,1.60
2009,03,20,22,13,3.20
2009,03,20,22,14,6.40
2009,03,20,22,15,6.40
2009,03,20,22,16,1.60
2009,03,20,22,17,4.80
2009,03,20,22,18,6.40
2009,03,20,22,19,8.10
2009,03,20,22,20,6.40
2009,03,20,22,21,4.80
2009,03,20,22,22,6.40
2009,03,20,22,23,8.10
2009,03,20,22,24,6.40
2009,03,20,22,25,6.40
2009,03,20,22,26,6.40
2009,03,20,22,27,6.40
2009,03,20,22,28,8.10
2009,03,20,22,29,9.60
2009,03,20,22,30,9.60
2009,03,20,22,31,9.60
2009,03,20,22,32,6.40
2009,03,20,22,33,4.80
2009,03,20,22,34,6.40
2009,03,20,22,35,0.00
2009,03,20,22,36,0.00
2009,03,20,22,37,1.60
2009,03,20,22,38,1.60
2009,03,20,22,39,0.00
2009,03,20,22,40,0.00
2009,03,20,22,41,0.00
2009,03,20,22,42,0.00
2009,03,20,22,43,1.60
2009,03,20,22,44,1.60
2009,03,20,22,45,3.20
2009,03,20,22,46,1.60
2009,03,20,22,47,0.00
2009,03,20,22,48,1.60
2009,03,20,22,49,1.60
2009,03,20,22,50,0.00
2009,03,20,22,51,1.60
2009,03,20,22,52,1.60
2009,03,20,22,53,3.20
2009,03,20,22,54,3.20
2009,03,20,22,55,3.20
2009,03,20,22,56,3.20
2009,03,20,22,57,0.00
2009,03,20,22,58,1.60
2009,03,20,22,59,0.00
2009,03,20,23,00,1.60
2009,03,20,23,01,0.00
2009,03,20,23,02,1.60
2009,03,20,23,03,0.00
2009,03,20,23,04,1.60
2009,03,20,23,05,0.00
2009,03,20,23,06,1.60
2009,03,20,23,07,1.60
2009,03,20,23,08,1.60
2009,03,20,23,09,0.00
2009,03,20,23,10,1.60
2009,03,20,23,11,0.00
2009,03,20,23,12,1.60
2009,03,20,23,13,0.00
2009,03,20,23,14,0.00
2009,03,20,23,15,0.00
2009,03,20,23,16,0.00
2009,03,20,23,17,0.00
2009,03,20,23,18,0.00
2009,03,20,23,19,0.00
2009,03,20,23,20,0.00
2009,03,20,23,21,1.60
2009,03,20,23,22,0.00
2009,03,20,23,23,3.20
2009,03,20,23,24,1.60
2009,03,20,23,25,1.60
2009,03,20,23,26,1.60
2009,03,20,23,27,1.60
2009,03,20,23,28,1.60
2009,03,20,23,29,4.80
2009,03,20,23,30,1.60
2009,03,20,23,31,3.20
2009,03,20,23,32,1.60
2009,03,20,23,33,6.40
2009,03,20,23,34,3.20
2009,03,20,23,35,4.80
2009,03,20,23,36,4.80
2009,03,20,23,37,1.60
2009,03,20,23,38,1.60
2009,03,20,23,39,1.60
2009,03,20,23,40,1.60
2009,03,20,23,41,0.00
2009,03,20,23,42,1.60
2009,03,20,23,43,0.00
2009,03,20,23,44,0.00
2009,03,20,23,45,0.00
2009,03,20,23,46,1.60
2009,03,20,23,47,0.00
2009,03,20,23,48,0.00
2009,03,20,23,49,1.60
2009,03,20,23,50,0.00
2009,03,20,23,51,0.00
2009,03,20,23,52,1.60
2009,03,20,23,53,1.60
2009,03,20,23,54,1.60
2009,03,20,23,55,3.20
2009,03,20,23,56,1.60
2009,03,20,23,57,3.20
2009,03,20,23,58,1.60
2009,03,20,23,59,3.20
